Moriarty, NM

8:09 AM MDT on September 26, 2017 (GMT -0600)
Moriarty

Weather History for K0E0 - April, 2013

Change the Weather History Date:

Wednesday, April 10, 2013

  Actual Average (KABQ) Record (KABQ)
Temperature  
Mean Temperature 36 °F -  
Max Temperature 49 °F 71 °F 89 °F (1909)
Min Temperature 24 °F 39 °F 24 °F (1909)
Degree Days  
Heating Degree Days 28    
Moisture  
Dew Point 24 °F    
Average Humidity 68    
Maximum Humidity 91    
Minimum Humidity 38    
Precipitation  
Precipitation 0.01 in - - ()
Sea Level Pressure  
Sea Level Pressure 29.94 in    
Wind  
Wind Speed 8 mph (SSW)    
Max Wind Speed 17 mph    
Max Gust Speed 24 mph    
Visibility 9 miles    
Events Snow    
Averages and records for this station are not official NWS values.
T = Trace of Precipitation, MM = Missing Value Source: NWS Daily Summary

Daily Weather History Graph

Daily Weather History Graph

Search for Another Location

Airport or City:

Trip Planner

Search our weather history database for the weather conditions in past years. The results will help you decide how hot, cold, wet, or windy it might be!

Date:

Astronomy

Apr. 10, 2013 Rise Set
Actual Time 6:38 AM MDT 7:32 PM MDT
Civil Twilight 6:12 AM MDT 7:58 PM MDT
Nautical Twilight 5:41 AM MDT 8:29 PM MDT
Astronomical Twilight 5:10 AM MDT 9:00 PM MDT
Moon 6:37 AM MDT (4/10) 8:08 PM MDT (4/10)
Length of Visible Light 13h 46m
Length of Day
12h 54m
New Moon, 0% of the Moon is Illuminated
Apr 10
New Moon
Apr 18
First Quarter
Apr 25
Full
May 2
Last Quarter
May 9
New

Hourly Weather History & Observations

Time (MDT) Temp. Windchill Dew Point Humidity Pressure Visibility Wind Dir Wind Speed Gust Speed Precip Events Conditions
12:15 AM 33.3 °F 26.4 °F 29.1 °F 85% 29.91 in 10.0 mi South 8.1 mph - N/A   Overcast
12:35 AM 32.9 °F 25.9 °F 28.4 °F 84% 29.91 in 10.0 mi South 8.1 mph - N/A   Overcast
12:55 AM 32.9 °F 25.9 °F 28.2 °F 83% 29.90 in 10.0 mi South 8.1 mph - N/A   Overcast
1:15 AM 32.2 °F 25.8 °F 28.0 °F 85% 29.91 in 10.0 mi SSW 6.9 mph - N/A   Mostly Cloudy
1:35 AM 32.0 °F 24.8 °F 27.9 °F 85% 29.91 in 10.0 mi SSW 8.1 mph - N/A   Mostly Cloudy
1:55 AM 32.0 °F 24.8 °F 28.8 °F 88% 29.92 in 10.0 mi WSW 8.1 mph - N/A   Overcast
2:15 AM 31.6 °F 28.3 °F 28.6 °F 88% 29.92 in 4.0 mi SW 3.5 mph - N/A Snow Light Snow
2:35 AM 31.5 °F 24.9 °F 28.2 °F 88% 29.93 in 3.0 mi South 6.9 mph - N/A Snow Light Snow
2:55 AM 30.2 °F 20.8 °F 26.4 °F 86% 29.92 in 4.0 mi SSE 11.5 mph - N/A Snow Light Snow
3:15 AM 30.9 °F 21.7 °F 26.2 °F 83% 29.92 in 10.0 mi SE 11.5 mph - N/A   Overcast
3:35 AM 28.9 °F 19.8 °F 23.9 °F 81% 29.92 in 5.0 mi SSE 10.4 mph - N/A Snow Light Snow
3:55 AM 28.6 °F 18.2 °F 22.3 °F 77% 29.91 in 10.0 mi SE 12.7 mph - N/A   Overcast
4:15 AM 28.2 °F 18.9 °F 21.2 °F 75% 29.92 in 10.0 mi SE 10.4 mph - N/A   Overcast
4:35 AM 27.5 °F 20.2 °F 22.3 °F 81% 29.92 in 10.0 mi SE 6.9 mph - N/A   Overcast
4:55 AM 27.1 °F 23.2 °F 22.1 °F 81% 29.92 in 5.0 mi SE 3.5 mph - N/A Snow Light Snow
5:15 AM 26.2 °F - 22.5 °F 86% 29.93 in 1.0 mi Calm Calm - N/A Snow Snow
5:35 AM 25.3 °F 19.7 °F 23.0 °F 91% 29.93 in 0.8 mi South 4.6 mph - 0.01 in Snow Snow
5:55 AM 24.8 °F 17.9 °F 21.7 °F 88% 29.93 in 10.0 mi South 5.8 mph - 0.01 in Snow Light Snow
6:15 AM 24.4 °F 16.5 °F 21.4 °F 88% 29.93 in 10.0 mi South 6.9 mph - N/A   Overcast
6:35 AM 24.4 °F 18.6 °F 22.1 °F 91% 29.94 in 10.0 mi South 4.6 mph - N/A   Overcast
6:55 AM 25.7 °F 18.0 °F 22.3 °F 87% 29.95 in 10.0 mi SE 6.9 mph - N/A   Overcast
7:15 AM 25.3 °F 16.0 °F 21.7 °F 86% 29.96 in 10.0 mi SSE 9.2 mph - N/A   Overcast
7:35 AM 25.5 °F 16.2 °F 21.7 °F 86% 29.96 in 5.0 mi South 9.2 mph - N/A Snow Light Snow
8:15 AM 25.3 °F 16.7 °F 19.0 °F 77% 29.97 in 10.0 mi SSE 8.1 mph - N/A   Mostly Cloudy
8:35 AM 26.4 °F 19.8 °F 18.3 °F 71% 29.97 in 10.0 mi SSE 5.8 mph - N/A   Scattered Clouds
8:55 AM 27.0 °F 20.5 °F 18.1 °F 69% 29.98 in 10.0 mi South 5.8 mph - N/A   Mostly Cloudy
9:15 AM 27.5 °F 21.1 °F 18.7 °F 69% 29.98 in 10.0 mi SSE 5.8 mph - N/A   Overcast
9:35 AM 28.0 °F 21.7 °F 19.2 °F 70% 29.99 in 10.0 mi SE 5.8 mph - N/A   Overcast
9:55 AM 28.8 °F 21.7 °F 20.7 °F 72% 29.99 in 10.0 mi SSE 6.9 mph - N/A   Overcast
10:15 AM 30.7 °F 23.3 °F 23.4 °F 74% 29.99 in 10.0 mi SSE 8.1 mph - N/A   Overcast
10:35 AM 33.6 °F 28.4 °F 27.3 °F 78% 29.99 in 10.0 mi SE 5.8 mph - N/A   Overcast
11:15 AM 35.2 °F 29.5 °F 27.5 °F 73% 29.98 in 10.0 mi South 6.9 mph - N/A   Mostly Cloudy
11:35 AM 36.1 °F 29.9 °F 27.5 °F 71% 29.97 in 10.0 mi SE 8.1 mph - N/A   Overcast
11:55 AM 38.1 °F 31.7 °F 27.9 °F 67% 29.97 in 10.0 mi SSW 9.2 mph - N/A   Mostly Cloudy
12:15 PM 38.5 °F 33.4 °F 28.2 °F 67% 29.96 in 7.0 mi South 6.9 mph - N/A   Unknown
12:55 PM 41.2 °F 36.0 °F 28.8 °F 61% 29.95 in 10.0 mi South 8.1 mph - N/A   Scattered Clouds
1:15 PM 43.5 °F 39.4 °F 28.2 °F 55% 29.93 in 10.0 mi SW 6.9 mph - N/A   Scattered Clouds
1:35 PM 45.1 °F 42.8 °F 27.7 °F 50% 29.92 in 10.0 mi SSE 4.6 mph - N/A   Scattered Clouds
1:55 PM 46.6 °F - 27.7 °F 48% 29.91 in 10.0 mi SSW 5.8 mph - N/A   Overcast
2:15 PM 46.9 °F - 27.3 °F 46% 29.90 in 10.0 mi SW 11.5 mph 20.7 mph N/A   Overcast
2:35 PM 48.4 °F - 26.2 °F 42% 29.90 in 10.0 mi SW 12.7 mph 18.4 mph N/A   Overcast
2:55 PM 49.5 °F - 24.4 °F 38% 29.90 in 10.0 mi WSW 15.0 mph 20.7 mph N/A   Overcast
3:15 PM 48.6 °F - 25.3 °F 40% 29.89 in 10.0 mi West 16.1 mph 24.2 mph N/A   Overcast
3:35 PM 46.9 °F - 27.7 °F 47% 29.89 in 10.0 mi WNW 17.3 mph 21.9 mph N/A   Overcast
3:55 PM 44.8 °F 37.7 °F 27.5 °F 51% 29.89 in 10.0 mi West 16.1 mph - N/A   Overcast
4:15 PM 44.6 °F 38.4 °F 28.6 °F 53% 29.89 in 10.0 mi West 12.7 mph - N/A   Overcast
4:35 PM 44.6 °F 37.8 °F 29.5 °F 55% 29.90 in 10.0 mi WSW 15.0 mph - N/A   Overcast
4:55 PM 46.8 °F - 28.8 °F 50% 29.89 in 10.0 mi WSW 10.4 mph 17.3 mph N/A   Mostly Cloudy
5:15 PM 44.6 °F 38.4 °F 27.9 °F 52% 29.90 in 10.0 mi WNW 12.7 mph - N/A   Mostly Cloudy
5:35 PM 43.5 °F 37.1 °F 26.6 °F 51% 29.90 in 10.0 mi WNW 12.7 mph - N/A   Overcast
5:55 PM 43.3 °F 36.1 °F 25.5 °F 49% 29.91 in 10.0 mi NW 15.0 mph - N/A   Overcast
6:15 PM 43.3 °F 36.5 °F 24.4 °F 47% 29.92 in 10.0 mi NW 13.8 mph - N/A   Scattered Clouds
6:35 PM 41.7 °F 35.2 °F 23.9 °F 49% 29.92 in 10.0 mi NNW 11.5 mph 16.1 mph N/A   Scattered Clouds
6:55 PM 41.0 °F 34.3 °F 23.4 °F 50% 29.93 in 10.0 mi NW 11.5 mph - N/A   Mostly Cloudy
7:15 PM 39.2 °F 31.6 °F 22.6 °F 52% 29.94 in 10.0 mi NW 12.7 mph - N/A   Scattered Clouds
7:35 PM 37.9 °F 30.0 °F 22.3 °F 53% 29.95 in 10.0 mi NW 12.7 mph - N/A   Clear
7:55 PM 37.0 °F 29.8 °F 22.8 °F 56% 29.95 in 10.0 mi NW 10.4 mph - N/A   Scattered Clouds
8:15 PM 34.9 °F 29.9 °F 22.5 °F 61% 29.96 in 10.0 mi NW 5.8 mph - N/A   Clear
8:35 PM 34.7 °F 30.6 °F 22.1 °F 60% 29.96 in 10.0 mi NW 4.6 mph - N/A   Clear
8:55 PM 33.8 °F 27.7 °F 22.1 °F 62% 29.97 in 10.0 mi NW 6.9 mph - N/A   Clear
9:15 PM 32.9 °F 28.5 °F 22.1 °F 65% 29.97 in 10.0 mi WSW 4.6 mph - N/A   Clear
9:35 PM 30.2 °F 24.3 °F 21.2 °F 69% 29.97 in 10.0 mi WSW 5.8 mph - N/A   Clear
9:55 PM 30.4 °F 22.2 °F 21.2 °F 69% 29.97 in 10.0 mi SW 9.2 mph - N/A   Clear
10:15 PM 30.0 °F 21.1 °F 21.2 °F 70% 29.97 in 10.0 mi WSW 10.4 mph - N/A   Clear
10:35 PM 31.3 °F 23.3 °F 21.2 °F 66% 29.97 in 10.0 mi WSW 9.2 mph - N/A   Clear
10:55 PM 30.9 °F 22.8 °F 21.2 °F 67% 29.97 in 10.0 mi WSW 9.2 mph - N/A   Clear
11:15 PM 30.2 °F 23.4 °F 20.8 °F 68% 29.97 in 10.0 mi WSW 6.9 mph - N/A   Clear
11:35 PM 31.5 °F 25.8 °F 21.0 °F 65% 29.97 in 10.0 mi West 5.8 mph - N/A   Clear
11:55 PM 33.6 °F 26.8 °F 21.2 °F 60% 29.96 in 10.0 mi West 8.1 mph - N/A   Clear